Regional Weather Roundup
Issued by NWS Green Bay, WI

Home | Current Version | Previous Version | Graphics & Text | Print | Product List | Glossary Off
Versions: 1 2 3 4 5 6 7 8 9 10 11 12 13 14 15 16 17 18 19 20 21 22 23 24 25 26 27 28 29 30 31 32 33 34 35 36 37 38 39 40 41 42 43 44 45 46 47 48 49 50

000
ASUS43 KGRB 301810
RWRGRB

NORTH-CENTRAL AND NORTHEAST WISCONSIN REGIONAL WEATHER ROUNDUP
NATIONAL WEATHER SERVICE GREEN BAY WI
1200 PM CST FRI JAN 30 2015

WIZ005-009-010>012-018-019-301900-
NORTH CENTRAL WISCONSIN

CITY           SKY/WX    TMP DP  RH WIND       PRES   REMARKS
IRONWOOD       PTSUNNY   14   3  62 SW7       30.37F WCI   4
MANITOWISH WTR MOSUNNY   13   2  63 S6        30.37F WCI   3
ARBOR VITAE    PTSUNNY   16   6  62 SW5       30.38F WCI   9
EAGLE RIVER    PTSUNNY   13   2  60 SW5       30.37F WCI   5
LAND O LAKES   PTSUNNY   14   4  64 CALM      30.37F
RHINELANDER    CLOUDY    14   4  64 W7        30.39F WCI   4
PHILLIPS       PTSUNNY   13   3  64 SW7       30.40F WCI   3
ANTIGO         PTSUNNY   13   4  68 SW3       30.41F
TOMAHAWK       CLOUDY    15   3  59 CALM      30.42F
MERRILL        CLOUDY    15   4  61 SW6       30.44F WCI   6
$$

WIZ013-073-301900-
NORTHEAST WISCONSIN

CITY           SKY/WX    TMP DP  RH WIND       PRES   REMARKS
IRON MOUNTAIN  PTSUNNY   14   2  58 VRB3      30.42F
MARINETTE      SUNNY     16   0  48 N6        30.49S WCI   7
OCONTO         MOSUNNY   18   5  56 MISG      30.50F
$$

WIZ017-030-035>037-045-301900-
CENTRAL WISCONSIN

CITY           SKY/WX    TMP DP  RH WIND       PRES   REMARKS
MEDFORD        MOSUNNY   13   3  66 SW6       30.43F WCI   3
WAUSAU         PTSUNNY   14   3  61 SW7       30.44F WCI   4
MOSINEE        SUNNY     16   7  67 SW5       30.47F WCI   9
MARSHFIELD     PTSUNNY   14   5  67 SW5       30.46F WCI   6
WISC RAPIDS    MOSUNNY   17   4  56 CALM      30.49F
STEVENS POINT  PTSUNNY   15   4  60 S3        30.47F
WAUPACA        PTSUNNY   22   6  51 CALM      30.50F
SHAWANO        PTSUNNY   19   5  54 CALM      30.49F
CLINTONVILLE   CLOUDY    19   5  53 SW3       30.49F
$$

WIZ038-039-048-051-301900-
FOX VALLEY

CITY           SKY/WX    TMP DP  RH WIND       PRES   REMARKS
NWS GREEN BAY  PTSUNNY   19   7  59 CALM      30.50F
APPLETON       PTSUNNY   18   3  53 VRB5      30.50F
OSHKOSH        PTSUNNY   19   7  59 W8        30.50F WCI   9
FOND DU LAC    PTSUNNY   20   6  55 CALM      30.50F
$$

WIZ022-050-052-301900-
EAST CENTRAL WISCONSIN

CITY           SKY/WX    TMP DP  RH WIND       PRES   REMARKS
STURGEON BAY   SUNNY     14   1  57 NW3       30.51F
MANITOWOC        N/A     22   8  55 N5        30.51F
SHEBOYGAN      MOSUNNY   21   9  59 CALM      30.49F
$$

LMZ563-521-522-541>543-301900-
LAKESHORE

STATION/POSITION TIME  TEMP    WIND        PRES    VSBY  WAVE
                       AIR SEA DIR/SP/G                  HT/PER
                 (UTC) (F)     (DEG/KT/KT) (MB)    (MI)  (FT/S)
SHEBOYGAN LKSHOR 1800   18      50/  6/  7 1034.3F
KEWAUNEE LKSHORE 1800   17     310/  5/  8 1032.3S
NORTHPORT PIER   1800   17     310/  9/ 12 1032.5S
SISTER BAY LKSHO 1700   22     330/  7/  8   N/A
CHAMBERS ISLAND  1800   19      10/  2/  4 1032.8S
MENOMINEE LKSHOR 1800   16      20/  2     1033.3F
$$



USA.gov is the U.S. government's official web portal to all federal, state and local government web resources and services.